Regional Weather Roundup
Issued by NWS

Home | Current Version | Previous Version | Text Only | Print | Product List | Glossary Off
Versions: 1 2 3 4 5 6 7 8 9 10 11 12 13 14 15 16 17 18 19 20 21 22 23 24 25 26 27 28 29 30 31 32 33 34 35 36 37 38 39 40 41 42 43 44 45 46 47 48 49 50

000
ASUS43 KMPX 220201
RWRMN
WEATHER ROUNDUP FOR MINNESOTA
NATIONAL WEATHER SERVICE TWIN CITIES/CHANHASSEN MN
900 PM CDT SAT APR 21 2018


NOTE: "FAIR" INDICATES FEW OR NO CLOUDS BELOW 12,000 FEET WITH NO
SIGNIFICANT WEATHER AND/OR OBSTRUCTIONS TO VISIBILITY. N/A MEANS
CURRENT SKY AND/OR WEATHER CONDITIONS ARE NOT AVAILABLE.

MNZ060>063-068>070-220300-
   Twin Cities Metro

CITY           SKY/WX    TMP DP  RH WIND       PRES   REMARKS
TWIN CITIES    FAIR      52  29  41 NW5       30.34R
ST PAUL        FAIR      49  35  58 S6        30.35R
CRYSTAL        FAIR      49  22  34 CALM      30.34R
LAKEVILLE      FAIR      46  36  66 SE3       30.35R
EDEN PRAIRIE   FAIR      51  26  37 CALM      30.34R
SOUTH ST PAUL  FAIR      50  34  53 CALM      30.35R
LAKE ELMO      FAIR      46  36  66 CALM      30.36R
$$
MNZ001>005-007-008-013>017-022>024-027-028-220300-
   Northwest Minnesota

CITY           SKY/WX    TMP DP  RH WIND       PRES   REMARKS
BEMIDJI        FAIR      51  28  41 S3        30.28R
HALLOCK        FAIR      48  45  87 S10       30.23S
ROSEAU         FAIR      52  45  76 SW3       30.26R
WARROAD        FAIR      52  43  71 SW3       30.27R
THIEF RVR FALL FAIR      50  44  80 SE5       30.27S
CROOKSTON      FAIR      48  43  81 S8        30.26S
FOSSTON        FAIR      45  36  70 S6        30.28S
DETROIT LAKES  FAIR      50  34  53 CALM      30.30S
MOORHEAD       FAIR      52  43  71 S10       30.28R
PARK RAPIDS    FAIR      50  32  50 S5        30.29R
MAHNOMEN       FAIR      48  38  66 S7        30.27S
$$
MNZ006-009>011-018-025>026-220300-
   North Central Minnesota

CITY           SKY/WX    TMP DP  RH WIND       PRES   REMARKS
BAUDETTE       FAIR      50  34  54 S7        30.26R
FLAG ISLAND    FAIR      45  27  49 SE3       30.25S
INTL FALLS     FAIR      43  28  55 SW3       30.27R
WASKISH        FAIR      43  32  65 CALM      30.28R
BIG FORK       FAIR      43  23  45 CALM      30.30S
LONGVILLE      FAIR      39  27  60 CALM      30.31R
GRAND RAPIDS   FAIR      42  24  49 S3        30.33R
CRANE LAKE     FAIR      34  25  69 CALM      30.31R
ORR            FAIR      48  14  25 CALM      30.28R
COOK           FAIR      43  25  49 CALM      30.30S
WALKER         FAIR      46  27  47 CALM      30.30R
$$
MNZ012-019>021-037-220300-
   Northeast Minnesota

CITY           SKY/WX    TMP DP  RH WIND       PRES   REMARKS
DULUTH         FAIR      48  20  32 S3        30.32S
ELY            FAIR      48  16  27 S5        30.31R
HIBBING        FAIR      38  21  50 S5        30.30R
EVELETH        FAIR      44  18  34 CALM      30.32R
DULUTH HARBOR  FAIR      37  28  70 NE5       30.35R
TWO HARBORS    FAIR      41  21  45 CALM      30.32R
SILVER BAY     FAIR      37  19  48 CALM      30.32R
GRAND MARAIS     N/A     34  26  72 CALM      30.36R
G MARAIS ARPRT FAIR      39  12  33 CALM      30.34S
$$
MNZ029>031-032-039>041-046>048-054>057-064-220300-
   West Central Minnesota

CITY           SKY/WX    TMP DP  RH WIND       PRES   REMARKS
FERGUS FALLS   FAIR      45  37  76 S7        30.28R
WHEATON        CLEAR     46  39  76 SE8       30.31S
MORRIS         CLEAR     46  39  76 S6        30.31R
ALEXANDRIA     FAIR      50  34  54 S7        30.31S
ELBOW LAKE     FAIR      42  37  82 S6        30.31R
WADENA         FAIR      45  32  61 CALM      30.31R
GLENWOOD       FAIR      46  37  71 CALM      30.32S
APPLETON       CLEAR     46  36  66 S6        30.32R
BENSON         CLEAR     45  39  81 SW5       30.34R
ORTONVILLE     CLEAR     45  37  76 SE7       30.31R
MADISON        CLOUDY    45  39  81 S6        30.32S
WILLMAR        FAIR      46  39  76 CALM      30.36R
$$
MNZ033>034-036-042>043-049>051-058-059-220300-
   Central Minnesota

CITY           SKY/WX    TMP DP  RH WIND       PRES   REMARKS
ST CLOUD       FAIR      46  31  55 E5        30.33R
SAUK CENTRE    FAIR      45  35  67 CALM      30.32S
PAYNESVILLE    FAIR      47  36  66 SE5       30.33S
AITKIN         FAIR      37  19  48 CALM      30.32R
PINE RIVER     FAIR      43  28  56 CALM      30.34R
BRAINERD       FAIR      48  29  47 SE5       30.33R
STAPLES        FAIR      46  28  49 SE3       30.32R
LONG PRAIRIE   FAIR      45  36  70 E3        30.32S
LITTLE FALLS   FAIR      46  27  46 CALM      30.34R
LITCHFIELD     FAIR      46  34  61 CALM        N/A
BUFFALO        FAIR      46  32  57 CALM      30.35R
MAPLE LAKE     FAIR      44  33  64 CALM      30.35R
HUTCHINSON     FAIR      45  38  77 CALM      30.36R
$$
MNZ037-044-045-052-053-220300-
   East Central Minnesota

CITY           SKY/WX    TMP DP  RH WIND       PRES   REMARKS
PRINCETON      FAIR      46  25  42 CALM      30.35R
MORA           FAIR      39  27  60 CALM      30.37R
CAMBRIDGE      FAIR      45  27  49 CALM      30.35R
RUSH CITY      MOCLDY    41  24  51 CALM      30.35R
MOOSE LAKE     FAIR      43  21  42 CALM      30.32R
HINCKLEY       FAIR      43  32  65 CALM      30.34R
CLOQUET        FAIR      45  10  24 CALM      30.33R
MCGREGOR       FAIR      45  18  33 CALM      30.34R
$$
MNZ071>073-080-081-089-090-097-098-220300-
   Southwest Minnesota

CITY           SKY/WX    TMP DP  RH WIND       PRES   REMARKS
MONTEVIDEO     PTCLDY    45  36  70 SW5       30.34R
GRANITE FALLS  MOCLDY    44  38  79 SE6       30.35R
CANBY          CLOUDY    40  37  86 SE3       30.33R
MARSHALL       CLOUDY    41  31  67 S8        30.33S
REDWOOD FALLS  CLOUDY    44  36  73 CALM      30.33S
OLIVIA         CLOUDY    45  37  76 S3        30.34R
PIPESTONE      CLOUDY   N/A N/A N/A E7        30.29F
WINDOM         CLOUDY    39  23  52 NE5       30.33S
WORTHINGTON    CLOUDY    38  34  85 NE6       30.32S
JACKSON        CLOUDY    36  32  87 E7        30.34R
TRACY          CLOUDY    41  35  80 SE3       30.32F
SLAYTON        CLOUDY    40  33  76 E3        30.32S
$$
MNZ065>067-074>077-082>085-091>093-220300-
   South Central Minnesota

CITY           SKY/WX    TMP DP  RH WIND       PRES   REMARKS
MANKATO        CLOUDY    46  37  71 E5        30.35R
NEW ULM        CLOUDY    46  34  61 CALM      30.34S
ST JAMES       CLOUDY    39  34  81 CALM      30.35S
FAIRMONT       MOCLDY    39  34  82 E5        30.34S
GLENCOE        FAIR      47  35  63 CALM      30.34R
FARIBAULT      CLOUDY    46  36  66 CALM      30.36R
OWATONNA       CLOUDY    45  37  76 E3        30.35R
WASECA         CLOUDY    43  36  75 E5        30.36S
ALBERT LEA     CLOUDY    45  34  65 SE5       30.35R
$$
MNZ078>079-086>088-094>096-220300-
   Southeast Minnesota

CITY           SKY/WX    TMP DP  RH WIND       PRES   REMARKS
ROCHESTER      CLOUDY    47  34  60 E6        30.36R
RED WING       FAIR      43  30  61 CALM      30.35R
STANTON        FAIR      44  36  71 CALM      30.34R
DODGE CENTER   CLOUDY    43  37  81 CALM      30.36R
WINONA         CLOUDY    48  34  57 CALM      30.34S
AUSTIN         CLOUDY    43  36  75 CALM      30.35S
PRESTON        CLOUDY    48  32  54 CALM      30.36R
$$
ABBREVIATIONS USED IN REMARKS
   TC - TEMPERATURES IN CELSIUS
  WCI - WIND CHILL INDEX
   HX - HEAT INDEX
  VSB - VISIBILITY
$$




USA.gov is the U.S. government's official web portal to all federal, state and local government web resources and services.